Terug naar catalogus

STARLINK-35531

ActiefCommunicatieVLEO
NORAD 66112·PAYLOAD·🇺🇸 United States

Gelanceerd Oct 19, 2025 vanaf Vandenberg Space Force Base

Loading…

Volgende Passages (komende 24 uur)

TLE

VersSource: CelesTrak SupGP

Epoch: Sep 15, 2026, 03:10 UTC

1 66112C 25236AC  26258.13243056  .00022161  00000+0  65494-3 0  2581
2 66112  53.1574 302.5209 0001372 106.6523  85.6216 15.34370945    10

Volg STARLINK-35531 in realtime met AllMySat

Download on the App Store